Wind_Speed
37 37 38 38 39 40 41 41 42 41 42 43 44 44 45 45 45 45 45 46 46 46 46 46 45 45 45 44 44 44 44 44 43 43 42 42 42 41 41 40 40 38 37 36
35 36 35 36 37 38 39 40 41 41 42 43 42 44 44 44 45 45 45 45 45 45 46 46 46 46 46 45 45 45 45 45 45 44 44 43 43 43 42 41 40 39 38 37
34 34 34 35 36 37 38 39 40 41 41 42 42 43 43 43 44 45 45 45 45 45 45 45 45 46 46 46 45 45 45 45 45 45 45 44 44 44 43 43 42 40 40 39
31 32 33 34 34 35 35 36 38 39 41 42 42 44 43 44 44 45 45 45 45 45 45 45 45 45 46 46 46 46 45 45 45 45 45 45 45 44 44 44 44 42 41 41
30 29 29 30 30 32 32 33 35 36 38 41 41 43 43 44 44 44 45 45 45 45 46 46 46 46 46 46 46 46 46 46 46 46 46 45 45 45 44 44 44 44 43 42
28 27 27 27 27 29 30 31 32 34 35 39 39 41 42 42 43 43 44 45 46 46 46 46 47 47 47 46 46 47 47 47 47 46 46 46 45 45 45 45 45 45 44 44
23 24 24 24 26 27 28 29 30 32 34 37 36 39 40 40 41 42 43 44 46 46 46 46 47 47 47 47 47 48 48 48 47 47 47 47 47 47 46 46 45 45 45 45
21 21 21 22 24 25 27 27 29 31 33 35 36 37 37 38 39 40 42 43 44 45 46 47 47 47 47 48 49 48 49 48 49 49 48 48 48 48 48 47 47 46 46 46
21 20 20 20 21 23 25 26 27 29 32 33 35 37 37 37 38 39 40 41 43 44 45 45 46 46 47 48 49 49 49 49 50 50 50 49 49 49 49 49 48 47 47 46
19 20 20 20 20 22 24 25 26 27 29 32 33 35 35 35 36 37 38 39 40 42 43 45 46 46 47 47 48 49 49 50 50 51 50 50 49 49 49 49 48 48 47 47
18 20 20 19 20 21 23 25 26 27 28 30 32 32 33 33 33 34 36 37 38 39 41 42 43 44 45 46 47 48 49 50 50 50 50 50 49 48 48 48 48 48 48 47
18 19 20 19 19 20 22 24 26 27 27 28 31 31 30 32 33 34 35 35 37 38 39 41 41 42 43 44 45 47 48 49 49 49 49 49 49 49 48 48 48 49 49 49
17 18 19 19 19 19 20 21 24 26 27 27 28 28 28 29 31 32 33 34 35 36 37 39 40 41 42 43 43 45 47 48 49 49 49 49 49 49 49 48 49 49 49 50
18 19 19 20 19 20 19 20 22 24 26 26 27 27 26 29 31 32 32 33 34 35 35 36 37 39 41 43 43 44 45 47 48 49 49 49 49 49 49 49 49 50 50 50
18 19 20 20 19 20 20 20 21 23 25 26 26 26 26 28 29 31 32 32 33 34 34 34 36 38 39 41 42 43 44 46 47 48 48 49 49 49 49 49 49 49 50 50
18 18 19 19 19 19 20 20 21 22 23 25 26 26 26 26 28 30 32 32 32 33 34 34 35 36 37 38 40 42 43 44 46 47 48 48 49 50 50 50 49 49 50 50
18 18 18 18 18 19 20 20 20 20 22 23 23 24 25 26 27 28 30 31 32 32 33 34 34 34 36 37 38 39 40 42 43 44 46 46 47 48 49 50 50 49 49 50
18 18 18 18 18 19 19 19 19 20 21 22 23 22 23 25 26 27 28 30 31 31 32 33 34 34 35 36 38 39 39 39 40 41 43 45 46 47 47 48 49 49 49 49
18 17 17 17 17 18 18 18 19 20 21 21 21 22 23 25 25 26 27 28 29 31 32 33 33 34 35 36 37 38 39 39 39 40 40 41 43 45 45 46 46 46 46 46
18 18 18 18 17 17 17 17 19 20 21 21 21 22 23 24 26 26 28 29 30 30 31 32 33 33 35 36 36 36 37 37 38 38 38 39 40 41 43 44 44 45 45 45
18 18 18 18 18 17 17 17 18 19 20 20 21 22 23 23 25 26 27 29 30 30 31 32 32 32 33 34 35 36 36 36 37 37 37 37 38 39 40 41 42 42 43 43
18 18 18 18 18 19 18 18 18 19 20 20 21 21 23 24 24 25 26 27 28 29 29 30 30 31 31 32 34 35 35 35 36 36 36 36 36 36 38 38 39 40 41 41
18 18 18 19 20 20 19 19 19 20 20 20 21 21 22 23 24 24 24 25 26 26 27 28 28 29 29 29 29 30 32 32 33 34 34 33 34 34 34 35 36 37 38 39
19 18 18 19 20 20 20 20 19 20 20 20 20 21 22 22 23 23 23 23 23 24 25 25 26 26 26 26 26 26 27 28 29 30 31 31 31 31 31 31 33 34 36 36
20 19 19 19 19 19 19 19 19 19 19 19 19 20 21 21 21 22 23 23 23 23 23 24 25 26 26 26 26 26 26 26 27 28 29 29 30 30 29 29 30 32 33 34
20 20 19 19 18 18 18 18 18 18 19 19 19 19 20 21 21 21 22 22 22 22 23 24 24 25 25 26 25 26 26 26 27 28 28 28 28 29 29 28 28 29 31 32
Wind_Direction
265 263 261 261 261 259 258 255 252 250 248 247 248 248 246 244 243 242 241 241 240 239 239 238 238 238 238 239 239 240 240 240 241 241 242 242 243 244 245 246 248 249 251 251
265 263 262 261 260 258 256 254 250 248 247 247 249 247 245 244 243 242 241 240 240 238 238 239 238 238 239 239 240 240 241 241 241 241 241 242 243 244 245 246 247 249 250 250
271 266 264 262 259 256 256 255 251 249 247 247 249 247 245 244 243 242 241 240 240 239 238 239 239 239 239 239 240 240 241 241 241 242 241 242 243 244 245 246 246 247 248 249
273 270 265 262 259 257 256 253 250 248 247 247 249 248 244 243 242 242 241 241 240 239 239 238 238 238 239 239 240 240 240 241 241 242 242 242 243 243 244 245 245 246 247 249
275 271 264 259 256 255 253 250 248 248 248 248 247 248 245 243 243 242 242 240 240 240 239 238 238 238 238 239 239 239 240 240 241 241 242 242 242 242 243 244 245 246 247 248
275 271 266 259 255 254 252 249 247 247 248 249 247 248 246 244 243 242 241 241 240 240 239 238 238 238 239 239 239 239 240 240 240 241 242 242 242 242 243 244 245 246 247 248
277 272 266 260 255 253 251 247 247 247 246 247 246 247 247 246 243 242 241 241 240 240 239 238 238 239 239 239 239 239 240 241 241 242 242 243 243 243 243 244 245 246 247 248
280 278 272 264 259 254 251 248 248 251 252 251 248 248 248 247 243 242 241 241 241 240 240 240 240 241 240 240 240 240 240 241 242 242 243 244 244 244 244 244 245 246 248 249
283 279 277 271 264 258 252 250 250 253 255 254 251 250 248 247 245 244 242 241 242 241 241 240 241 241 241 241 241 241 241 241 242 243 243 244 244 245 245 245 246 247 247 249
286 280 275 271 265 261 257 252 250 251 254 254 252 251 250 249 248 246 245 243 242 241 241 241 241 241 242 242 241 241 242 242 242 243 243 244 245 246 246 246 247 247 248 249
289 285 278 270 264 261 260 254 252 253 253 253 252 252 250 251 249 248 246 245 243 242 241 241 242 242 242 242 242 241 241 242 243 244 244 244 245 246 246 246 246 246 248 249
289 287 281 274 271 268 266 261 256 253 252 252 252 252 251 251 249 248 247 247 245 244 245 245 244 243 243 243 242 241 241 242 243 244 243 243 244 245 246 246 246 247 248 249
289 287 283 276 273 272 270 263 257 253 253 253 251 250 250 250 249 248 248 248 247 246 247 247 246 245 244 244 243 242 241 241 242 243 244 244 245 246 246 246 246 247 248 249
290 286 284 280 278 277 273 265 259 255 254 254 253 252 251 250 250 250 249 248 247 246 247 247 247 246 245 245 244 244 243 242 242 243 244 244 245 246 247 248 247 247 248 249
291 290 287 281 278 277 275 267 259 258 256 255 255 254 254 253 252 251 251 250 249 248 247 247 246 245 244 245 245 245 244 243 243 243 245 245 246 246 247 248 248 248 249 249
291 291 291 285 278 275 271 267 261 258 256 254 254 254 254 254 254 253 253 252 250 249 248 247 247 245 244 244 244 244 244 244 245 245 246 246 247 247 248 248 249 249 249 250
290 292 293 292 283 277 269 265 261 258 257 256 257 257 257 255 255 255 254 253 250 249 249 248 248 248 246 245 245 246 246 245 246 247 247 247 247 247 248 249 250 250 251 251
293 292 293 294 290 283 277 270 266 263 262 261 261 259 259 256 255 255 255 255 253 251 250 250 250 249 248 247 247 247 246 247 248 249 249 248 247 248 249 249 250 251 251 250
295 294 295 294 292 289 282 276 271 268 266 266 264 261 260 259 256 254 255 256 256 255 254 253 252 251 249 249 249 248 248 248 250 251 251 250 249 248 249 250 251 251 250 250
298 294 293 292 292 293 287 279 274 272 270 268 267 265 263 262 259 256 255 256 256 255 255 255 254 254 252 251 250 249 248 248 249 250 251 251 251 251 250 251 251 250 250 249
301 295 292 290 290 290 288 284 281 277 274 271 270 268 265 263 262 261 259 258 258 257 256 256 255 255 254 252 251 251 250 250 250 250 251 252 252 252 252 252 251 250 249 248
305 296 290 289 290 289 287 283 282 280 277 274 273 272 269 266 265 264 264 262 260 258 257 255 254 254 254 254 253 252 252 252 251 251 250 252 253 254 253 251 250 249 248 248
309 300 293 289 287 287 285 283 282 280 280 279 277 275 273 270 268 267 265 262 260 258 256 254 254 253 253 254 254 253 252 251 250 250 249 251 252 254 254 252 250 249 249 250
313 305 299 292 287 285 283 283 284 282 281 281 280 278 276 274 270 266 264 262 259 258 256 255 254 253 252 252 253 254 252 251 251 251 251 250 251 252 253 253 250 248 248 250
313 309 304 298 292 287 283 282 282 281 281 280 280 280 279 277 272 267 264 262 259 259 258 257 256 254 253 254 255 254 253 254 254 252 251 250 251 251 250 252 251 249 248 250
313 311 307 301 296 291 286 282 282 282 281 281 281 280 280 279 274 269 265 262 260 260 260 259 257 255 255 255 256 256 256 257 256 255 253 252 251 250 250 250 252 251 248 249
Height
5614 5615 5614 5617 5618 5620 5621 5623 5626 5631 5634 5638 5642 5646 5651 5655 5660 5666 5670 5675 5680 5685 5690 5695 5699 5704 5708 5712 5717 5722 5726 5730 5734 5738 5743 5746 5750 5753 5756 5759 5761 5764 5767 5769
5603 5603 5606 5606 5607 5608 5609 5612 5615 5620 5623 5627 5631 5635 5640 5644 5649 5654 5660 5665 5670 5675 5679 5684 5689 5694 5698 5703 5707 5712 5716 5720 5724 5729 5733 5737 5740 5743 5747 5750 5753 5756 5759 5761
5593 5595 5595 5595 5596 5597 5599 5602 5605 5609 5613 5616 5620 5624 5629 5633 5638 5643 5649 5654 5659 5664 5669 5674 5679 5684 5688 5693 5697 5702 5706 5710 5714 5718 5723 5727 5731 5734 5737 5741 5744 5747 5749 5752
5584 5585 5585 5585 5586 5588 5590 5593 5595 5598 5602 5605 5609 5612 5618 5623 5628 5633 5638 5643 5649 5654 5659 5664 5668 5673 5678 5682 5687 5691 5695 5700 5704 5708 5712 5717 5721 5724 5727 5730 5734 5737 5740 5743
5575 5575 5575 5576 5578 5579 5581 5584 5586 5589 5592 5595 5599 5601 5607 5612 5617 5623 5628 5633 5638 5643 5649 5653 5658 5662 5667 5672 5676 5681 5685 5689 5693 5697 5702 5706 5710 5714 5717 5720 5724 5727 5730 5733
5567 5566 5567 5568 5570 5571 5573 5575 5578 5580 5582 5585 5590 5592 5596 5602 5607 5612 5617 5622 5627 5632 5637 5642 5647 5651 5656 5661 5665 5670 5674 5678 5682 5686 5691 5695 5699 5703 5707 5710 5713 5717 5720 5723
5561 5560 5560 5561 5562 5563 5565 5568 5570 5572 5573 5577 5581 5582 5587 5592 5597 5602 5607 5611 5616 5621 5626 5631 5636 5640 5645 5650 5654 5659 5663 5667 5671 5676 5680 5684 5688 5692 5696 5699 5703 5706 5709 5712
5554 5555 5554 5554 5555 5557 5559 5561 5563 5565 5566 5569 5572 5574 5579 5583 5587 5592 5596 5601 5605 5610 5615 5620 5625 5629 5634 5638 5643 5647 5652 5656 5660 5664 5669 5673 5677 5681 5685 5688 5692 5695 5698 5701
5549 5549 5549 5549 5550 5552 5553 5554 5557 5558 5558 5560 5562 5566 5570 5574 5578 5583 5587 5591 5595 5599 5604 5609 5614 5618 5622 5627 5631 5636 5640 5645 5649 5653 5657 5661 5665 5669 5673 5677 5680 5684 5687 5690
5544 5544 5545 5545 5545 5546 5547 5549 5550 5551 5551 5552 5555 5558 5562 5566 5570 5575 5578 5581 5585 5589 5593 5598 5602 5606 5611 5615 5619 5624 5628 5633 5637 5641 5645 5649 5653 5657 5661 5665 5669 5672 5675 5678
5540 5540 5540 5540 5539 5540 5541 5543 5543 5544 5545 5546 5548 5554 5555 5559 5563 5566 5569 5572 5576 5579 5583 5587 5590 5595 5599 5603 5607 5612 5616 5620 5624 5628 5633 5637 5641 5645 5649 5653 5657 5660 5663 5666
5536 5535 5535 5535 5535 5535 5535 5536 5537 5539 5539 5540 5542 5549 5549 5551 5554 5557 5560 5563 5566 5570 5573 5576 5580 5584 5588 5592 5596 5600 5604 5608 5612 5616 5621 5625 5629 5633 5637 5641 5644 5648 5651 5654
5532 5531 5530 5530 5532 5531 5529 5530 5531 5532 5534 5535 5537 5543 5542 5544 5546 5549 5552 5555 5557 5560 5564 5567 5570 5573 5577 5581 5585 5588 5592 5596 5600 5604 5609 5613 5617 5621 5624 5628 5632 5636 5639 5642
5527 5526 5527 5526 5525 5524 5524 5525 5525 5526 5527 5529 5531 5534 5536 5538 5540 5542 5544 5547 5549 5552 5554 5557 5560 5563 5566 5570 5573 5577 5581 5585 5588 5592 5596 5601 5605 5608 5612 5616 5619 5623 5626 5629
5523 5523 5522 5521 5520 5520 5520 5520 5520 5521 5522 5523 5525 5527 5529 5530 5532 5534 5536 5538 5541 5543 5546 5548 5551 5553 5556 5559 5563 5566 5570 5573 5577 5581 5585 5589 5592 5596 5599 5603 5606 5610 5613 5616
5519 5518 5517 5517 5516 5515 5515 5515 5515 5516 5516 5517 5519 5521 5522 5523 5524 5526 5528 5530 5532 5534 5537 5539 5541 5544 5547 5549 5553 5556 5559 5563 5566 5569 5573 5576 5580 5583 5586 5590 5593 5597 5600 5603
5515 5514 5513 5512 5511 5510 5510 5510 5510 5511 5511 5512 5512 5515 5515 5516 5517 5518 5520 5521 5523 5525 5527 5530 5532 5534 5537 5540 5543 5546 5549 5552 5555 5558 5561 5564 5567 5570 5574 5577 5580 5584 5587 5590
5512 5510 5509 5508 5508 5506 5508 5506 5506 5506 5506 5506 5507 5508 5509 5509 5511 5511 5512 5513 5515 5517 5519 5521 5523 5525 5527 5530 5533 5536 5539 5542 5544 5547 5550 5552 5555 5558 5561 5564 5567 5570 5573 5576
5508 5507 5505 5504 5502 5501 5502 5501 5501 5501 5501 5502 5501 5502 5502 5502 5503 5505 5505 5506 5507 5509 5510 5512 5514 5516 5518 5520 5523 5526 5528 5531 5534 5536 5539 5541 5543 5546 5549 5551 5554 5557 5560 5563
5505 5503 5502 5500 5498 5497 5499 5497 5496 5497 5496 5496 5496 5496 5496 5496 5497 5499 5499 5499 5499 5500 5502 5503 5505 5506 5508 5511 5513 5516 5518 5521 5524 5526 5528 5530 5532 5534 5537 5539 5542 5545 5548 5552
5501 5499 5498 5496 5494 5493 5493 5492 5492 5493 5492 5491 5490 5490 5490 5490 5490 5491 5490 5491 5491 5492 5493 5494 5496 5497 5499 5501 5504 5506 5509 5511 5513 5515 5518 5520 5522 5524 5526 5528 5531 5533 5536 5540
5497 5495 5493 5492 5491 5492 5489 5487 5487 5487 5486 5485 5484 5484 5484 5484 5483 5483 5483 5483 5483 5484 5485 5486 5488 5489 5491 5492 5495 5497 5499 5501 5503 5506 5508 5510 5512 5513 5515 5517 5519 5522 5525 5528
5493 5491 5489 5488 5488 5486 5484 5483 5482 5481 5480 5479 5479 5478 5477 5477 5477 5477 5476 5476 5476 5476 5478 5479 5480 5482 5483 5485 5486 5488 5490 5492 5494 5496 5498 5500 5502 5503 5505 5507 5509 5511 5514 5517
5490 5487 5485 5483 5482 5480 5479 5478 5477 5476 5475 5474 5473 5472 5471 5471 5470 5470 5469 5469 5470 5470 5471 5472 5473 5474 5476 5478 5479 5480 5482 5484 5486 5487 5489 5491 5493 5494 5496 5497 5499 5501 5504 5506
5486 5483 5480 5479 5477 5476 5474 5473 5472 5470 5469 5468 5467 5466 5465 5464 5464 5463 5463 5463 5464 5464 5465 5466 5467 5468 5469 5470 5472 5473 5475 5476 5477 5479 5480 5482 5484 5486 5487 5488 5490 5492 5494 5496
5482 5479 5477 5475 5472 5471 5469 5468 5466 5465 5464 5463 5462 5461 5459 5458 5457 5457 5457 5457 5458 5459 5459 5460 5460 5461 5462 5463 5464 5465 5467 5468 5470 5471 5472 5474 5476 5477 5479 5481 5482 5483 5485 5487